Home > Time Zones > World Clock > Weather > India > Sikar > Past weeks

Flag for India Weather past 2 weeks in Sikar, Rajasthan, India

Now
75 °F

Haze.


Feels Like: 77 °F
Forecast: 74 / 95 °F
Wind: 5 mph from Northwest

Location: Jaipur / Sanganer

Current Time: Sep 24, 2014 at 5:58:16 AM

Latest Report: Sep 24, 2014 at 5:00 AM


Visibility: 2 mi

Pressure: 29.80 "Hg

Humidity: 74%

Dew point: 66 °F

Location of SikarLocation

Historic Weather in Sikar — Graph

°F

Sikar temperature yesterday

Maximum temperature yesterday: 93 °F (at 3:00 PM)
Minimum temperature yesterday: 75 °F (at 3:00 AM)
Average temperature yesterday: 83 °F

Past Weeks' High & Low Weather Summary

 TemperatureHumidityPressure
High93 °F (Sep 10, 1:00 PM)100% (Sep 11, 8:00 PM)29.86 "Hg (Sep 11, 8:00 PM)
Low72 °F (Sep 19, 3:00 AM)30% (Sep 22, 3:00 PM)29.65 "Hg (Sep 9, 3:00 AM)
Average84 °F69%29.75 "Hg
* Reported Sep 9 3:00 AM — Sep 24 3:00 AM, Sikar, Weather by CustomWeather, © 2014

Note: Actual official high and low records may vary slightly from our data, if they occured in-between our weather recording intervals... More about our weather records

Advertising

Sikar weather history for previous 24 hours

 ConditionsComfort  
Time TempWeatherWind HumidityBarometerVisibility
3:00 AM
Sep 24
77 °FHaze.5 mph69%29.80 "Hg2 mi
2:00 AM77 °FHaze.7 mph74%29.80 "Hg2 mi
1:00 AM77 °FHaze.7 mph74%29.80 "Hg2 mi
12:00 AM79 °FHaze.8 mph70%29.80 "Hg2 mi
11:00 PM
Sep 23
81 °FHaze.6 mph66%29.83 "Hg2 mi
10:00 PM82 °FHaze.9 mph62%29.83 "Hg2 mi
9:00 PM82 °FHaze.8 mph62%29.83 "Hg2 mi
8:00 PM84 °FHaze.8 mph58%29.80 "Hg2 mi
7:00 PM86 °FHaze.9 mph55%29.77 "Hg2 mi
6:00 PM90 °FHaze.7 mph46%29.74 "Hg2 mi
3:00 PM93 °FHaze.6 mph41%29.74 "Hg2 mi
2:00 PM91 °FHaze.12 mph44%29.77 "Hg2 mi
1:00 PM90 °FHaze.12 mph46%29.80 "Hg2 mi
12:00 PM90 °FHaze.10 mph49%29.83 "Hg2 mi
11:00 AM86 °FHaze.10 mph52%29.83 "Hg2 mi
10:00 AM84 °FHaze.10 mph58%29.86 "Hg2 mi
9:00 AM81 °FHaze.9 mph66%29.83 "Hg2 mi
8:00 AM79 °FHaze.9 mph70%29.83 "Hg2 mi
7:00 AM75 °FHaze.5 mph78%29.80 "Hg2 mi
6:00 AM75 °FHaze.6 mph74%29.80 "Hg2 mi
5:00 AM75 °FHaze.5 mph78%29.80 "Hg2 mi
Weather by CustomWeather, © 2014

See weather overviewHow to use our weather pages